Flag for Colombia Weather past 2 weeks in Barranquilla, Colombia

Now
81 °F

Passing clouds.


Feels Like: 87 °F
Forecast: 79 / 87 °F
Wind: 5 mph from North

Location: Barranquilla / Ernestocortissoz

Current Time: May 26, 2015 at 3:43:38 AM

Latest Report: May 26, 2015 at 3:00 AM


Visibility: N/A

Pressure: 29.85 "Hg

Humidity: 89%

Dew point: 77 °F

Location of BarranquillaLocation

Historic Weather in Barranquilla — Graph

°F

Barranquilla temperature yesterday

Maximum temperature yesterday: 88 °F (at 12:00 PM)
Minimum temperature yesterday: 77 °F (at 5:00 AM)
Average temperature yesterday: 83 °F

Past Weeks' High & Low Weather Summary

 TemperatureHumidityPressure
High95 °F (May 20, 12:00 PM)100% (May 14, 11:00 AM)30.13 "Hg (May 14, 11:00 AM)
Low73 °F (May 14, 12:00 PM)44% (May 14, 12:00 PM)29.69 "Hg (May 13, 5:00 PM)
Average83 °F82%29.83 "Hg
* Reported May 11 2:00 AM — May 26 2:00 AM, Barranquilla, Weather by CustomWeather, © 2015

Note: Actual official high and low records may vary slightly from our data, if they occured in-between our weather recording intervals... More about our weather records

Advertising

Barranquilla weather history for previous 24 hours

 ConditionsComfort  
Time TempWeatherWind HumidityBarometerVisibility
2:00 AM
Tue, May 26
81 °FPassing clouds.3 mph89%29.86 "HgN/A
1:00 AM81 °FPassing clouds.7 mph89%29.88 "HgN/A
12:00 AM81 °FPassing clouds.7 mph89%29.81 "HgN/A
11:00 PM
Mon, May 25
81 °FPassing clouds.9 mph89%29.88 "HgN/A
10:00 PM82 °FPassing clouds.9 mph84%29.89 "HgN/A
9:00 PM81 °FPassing clouds.5 mph89%29.88 "HgN/A
8:00 PM81 °FPassing clouds.7 mph89%29.87 "HgN/A
7:00 PM82 °FPassing clouds.7 mph84%29.84 "HgN/A
6:00 PM84 °FPartly sunny.9 mph74%29.82 "HgN/A
5:00 PM86 °FPartly sunny.5 mph75%29.80 "HgN/A
4:00 PM88 °FPartly sunny.9 mph66%29.81 "HgN/A
3:00 PM88 °FBroken clouds.3 mph70%29.82 "HgN/A
2:00 PM88 °FBroken clouds.5 mph70%29.84 "HgN/A
1:00 PM88 °FBroken clouds.7 mph66%29.86 "HgN/A
12:00 PM88 °FBroken clouds.6 mph62%29.89 "HgN/A
11:00 AM86 °FBroken clouds.8 mph75%29.90 "Hg5 mi
10:00 AM86 °FBroken clouds.7 mph75%29.91 "Hg5 mi
9:00 AM86 °FFog.6 mph75%29.91 "Hg5 mi
8:00 AM82 °FFog.7 mph84%29.90 "Hg4 mi
7:00 AM77 °FFog.5 mph89%29.88 "Hg2 mi
6:00 AM77 °FFog.No wind94%29.86 "Hg2 mi
5:00 AM77 °FClear.No wind94%29.85 "Hg10 mi
4:00 AM79 °FClear.No wind94%29.84 "Hg10 mi
3:10 AM79 °FClear.5 mph89%29.83 "Hg10 mi
Weather by CustomWeather, © 2015

See weather overviewHow to use our weather pages